Location: LDNL
(36.4545°S, 141.6685°E)
Time: 01:20:08
(UTC+11:00)

Vanguard 3 - All Passes

Search period start: 06 February 2023 00:00
Search period end: 16 February 2023 00:00
Orbit: 509 x 3252 km, 33.4° (Epoch: 05 February)

Date Brightness Start Highest point End Pass type
(mag) Time Alt. Az. Time Alt. Az. Time Alt. Az.
06 Feb - 04:43:11 10° NNW 04:57:41 31° NNE 05:07:54 10° E visible
06 Feb - 06:57:00 10° NW 07:11:55 56° NNE 07:20:30 10° E daylight
06 Feb - 09:13:39 10° W 09:25:05 73° N 09:31:19 10° E daylight
06 Feb - 11:29:43 10° W 11:36:52 46° NNW 11:41:19 10° NE daylight
07 Feb - 03:28:00 10° N 03:40:34 22° NE 03:50:40 10° ENE visible
07 Feb - 05:39:05 10° NW 05:55:14 46° NNE 06:05:24 10° E visible
07 Feb - 07:55:06 10° WNW 08:09:10 70° N 08:16:52 10° E daylight
07 Feb - 10:12:02 10° W 10:21:50 66° NNW 10:27:21 10° ENE daylight
07 Feb - 12:27:53 10° W 12:32:46 23° NW 12:36:20 10° NNE daylight
08 Feb - 02:16:13 10° NNE 02:23:22 13° NE 02:29:56 10° ENE visible
08 Feb - 04:22:04 10° NNW 04:38:09 36° NNE 04:49:34 10° E visible
08 Feb - 06:36:29 10° WNW 06:52:43 62° NNE 07:02:08 10° E daylight
08 Feb - 08:53:39 10° W 09:06:15 74° N 09:13:05 10° E daylight
08 Feb - 11:10:14 10° W 11:18:12 45° NNW 11:23:01 10° NE daylight
09 Feb - 03:06:31 10° N 03:20:51 26° NE 03:32:30 10° E visible
09 Feb - 05:18:20 10° NW 05:35:45 52° NNE 05:46:56 10° E visible
09 Feb - 07:34:48 10° WNW 07:50:05 73° N 07:58:32 10° E daylight
09 Feb - 09:52:11 10° W 10:03:04 65° NNW 10:09:05 10° ENE daylight
09 Feb - 12:08:42 10° W 12:14:00 22° NW 12:17:47 10° NNE daylight
10 Feb - 01:53:30 10° N 02:03:35 16° NE 02:12:50 10° ENE visible
10 Feb - 04:01:08 10° NNW 04:18:25 41° NNE 04:31:01 10° E visible
10 Feb - 06:15:57 10° WNW 06:33:21 67° NNE 06:43:40 10° E visible
10 Feb - 08:33:31 10° W 08:47:18 75° N 08:54:46 10° E daylight
10 Feb - 10:50:36 10° W 10:59:25 43° NNW 11:04:40 10° NE daylight
11 Feb - 02:45:21 10° NNW 03:00:57 30° NE 03:13:59 10° E visible
11 Feb - 04:57:40 10° NW 05:16:06 57° NNE 05:28:18 10° E visible
11 Feb - 07:14:26 10° WNW 07:30:52 76° N 07:40:07 10° E daylight
11 Feb - 09:32:12 10° W 09:44:10 63° NNW 09:50:45 10° ENE daylight
11 Feb - 11:49:23 10° W 11:55:07 21° NW 11:59:11 10° N daylight
12 Feb - 01:31:42 10° N 01:43:38 20° NE 01:54:48 10° E visible
12 Feb - 03:40:23 10° NW 03:58:31 46° NNE 04:12:17 10° E visible
12 Feb - 05:55:27 10° WNW 06:13:50 71° NNE 06:25:05 10° E visible
12 Feb - 08:13:16 10° W 08:28:13 75° N 08:36:23 10° ENE daylight
12 Feb - 10:30:48 10° W 10:40:30 41° NNW 10:46:12 10° NE daylight
13 Feb - 02:24:27 10° NNW 02:40:54 34° NE 02:55:11 10° E visible
13 Feb - 04:37:06 10° NW 04:56:16 62° NNE 05:09:32 10° E visible
13 Feb - 06:54:02 10° W 07:11:31 78° N 07:21:35 10° E daylight
13 Feb - 09:12:03 10° W 09:25:08 62° NNW 09:32:20 10° ENE daylight
13 Feb - 11:29:55 10° W 11:36:07 21° NW 11:40:29 10° N daylight
14 Feb - 01:10:26 10° N 01:23:31 23° NE 01:36:14 10° E visible
14 Feb - 03:19:47 10° NW 03:38:26 50° NNE 03:53:20 10° E visible
14 Feb - 05:34:59 10° WNW 05:54:09 74° N 06:06:22 10° E visible
14 Feb - 07:52:55 10° W 08:08:58 75° N 08:17:54 10° ENE daylight
14 Feb - 10:10:50 10° W 10:21:25 40° NNW 10:27:41 10° NE daylight
15 Feb - 00:01:05 10° NNE 00:06:35 12° NE 00:12:11 10° ENE visible
15 Feb - 02:03:49 10° NNW 02:20:40 38° NE 02:36:07 10° E visible
15 Feb - 04:16:39 10° WNW 04:36:18 66° NNE 04:50:38 10° E visible
15 Feb - 06:33:37 10° W 06:52:00 79° N 07:02:58 10° E visible
15 Feb - 08:51:48 10° W 09:05:56 60° NNW 09:13:50 10° NE daylight
15 Feb - 11:10:18 10° W 11:16:58 20° NW 11:21:41 10° N daylight
